Regional Weather Roundup
Issued by NWS

Home | Current Version | Previous Version | Graphics & Text | Print | Product List | Glossary Off
Versions: 1 2 3 4 5 6 7 8 9 10 11 12 13 14 15 16 17 18 19 20 21 22 23 24 25 26 27 28 29 30 31 32 33 34 35 36 37 38 39 40 41 42 43 44 45 46 47 48 49 50

000
ASUS43 KOAX 051910
RWRNE

WEATHER ROUNDUP FOR NEBRASKA
NATIONAL WEATHER SERVICE OMAHA NE
200 PM CDT SUN JUL 05 2015

NOTES: SATELLITE DATA IS BEING USED TO AUGMENT CLOUD COVER ABOVE
       12000 FEET.
       "FAIR" INDICATES FEW OR NO CLOUDS BELOW 12,000 FEET WITH NO
       SIGNIFICANT WEATHER AND/OR OBSTRUCTIONS TO VISIBILITY.

  * THESE STATIONS DO NOT REPORT WEATHER SUCH AS RAIN...SNOW OR FOG.

NEZ001>004-019>022-054>056-052000-
NEBRASKA PANHANDLE

CITY           SKY/WX    TMP DP  RH WIND       PRES   REMARKS
SCOTTSBLUFF    PTSUNNY   92  55  28 NW10      29.85F HX  90
ALLIANCE       MOSUNNY   92  59  33 W15       29.84S HX  91
CHADRON        PTSUNNY   88  67  49 N12       29.82S HX  91
KIMBALL          N/A    N/A N/A N/A MISG        N/A
SIDNEY         MOSUNNY   96  56  26 VRB6      29.88F HX  94
$$

NEZ057>060-069>072-079>082-052000-
SOUTHWEST NEBRASKA

CITY           SKY/WX    TMP DP  RH WIND       PRES   REMARKS
NORTH PLATTE   SUNNY     92  67  43 S14G20    29.81S HX  95
IMPERIAL       SUNNY     97  58  27 S10       29.82F HX  96
LEXINGTON      MOSUNNY   90  69  50 SE16      29.81F HX  94
MCCOOK         SUNNY     99  61  28 SE13G18   29.78F HX  99
OGALLALA       SUNNY     92  63  38 E3        29.81F HX  92
$$

NEZ005>010-023>029-035>040-094-052000-
NORTH CENTRAL NEBRASKA

CITY           SKY/WX    TMP DP  RH WIND       PRES   REMARKS
VALENTINE      MOSUNNY   92  67  43 S14       29.77S HX  95
AINSWORTH      MOSUNNY   89  69  51 S18       29.79F HX  93
BROKEN BOW     SUNNY     90  70  51 SE17G26   29.81F HX  95
O`NEILL        SUNNY     84  72  65 S15G22    29.80F HX  90
ORD            MOSUNNY   89  69  51 S17G24    29.79F HX  93
THEDFORD       SUNNY     91  68  47 S10G21    29.82F HX  95
$$

NEZ041-046>049-061>064-073>077-083>087-052000-
SOUTH CENTRAL NEBRASKA

CITY           SKY/WX    TMP DP  RH WIND       PRES   REMARKS
GRAND ISLAND   MOSUNNY   88  72  58 SE18G28   29.84F HX  94
AURORA         SUNNY     87  73  62 SE18G24   29.85S HX  94
HASTINGS       SUNNY     91  71  51 S16G24    29.82F HX  97
HEBRON         SUNNY     91  68  46 S16       29.84F HX  95
HOLDREGE       MOSUNNY   91  66  43 SE17      29.81F HX  94
KEARNEY *      SUNNY     90  70  51 SE20G26   29.81F HX  95
YORK           MOSUNNY   84  75  74 S15G21    29.84F HX  92
$$

NEZ011>018-030>034-042>045-052000-
NORTHEAST NEBRASKA

CITY           SKY/WX    TMP DP  RH WIND       PRES   REMARKS
NORFOLK        MOSUNNY   84  73  69 S18G25    29.82F HX  90
ALBION         SUNNY     82  71  68 SE15G21   29.82F
BLAIR          CLOUDY    82  70  67 S21G26    29.86F
COLUMBUS *     SUNNY     82  72  69 S14G20    29.85F
FREMONT        PTSUNNY   82  71  68 S13G22    29.85F
TEKAMAH        MOSUNNY   86  72  62 SE18      29.84F HX  92
WAYNE          MOSUNNY   83  74  75 S18G24    29.82F HX  90
$$

NEZ050>053-065>068-078-088>093-052000-
SOUTHEAST NEBRASKA

CITY           SKY/WX    TMP DP  RH WIND       PRES   REMARKS
LINCOLN        MOSUNNY   89  74  60 SE21      29.85F HX  98
OMAHA EPPLEY   CLOUDY    84  71  65 S17G29    29.86F
BEATRICE       MOSUNNY   88  73  61 S16       29.87F HX  96
FALLS CITY     PTSUNNY   88  73  61 S17       29.89F HX  95
NEBRASKA CITY  CLOUDY    86  69  57 SE14G21   29.89F
PLATTSMOUTH    CLOUDY    83  70  64 SE16G23   29.88F
$$

NEZ044-045-051>053-067-052000-
OMAHA AREA

CITY           SKY/WX    TMP DP  RH WIND       PRES   REMARKS
OMAHA EPPLEY   CLOUDY    84  71  65 S17G29    29.86F
BLAIR          CLOUDY    82  70  67 S21G26    29.86F
FREMONT        PTSUNNY   82  71  68 S13G22    29.85F
MILLARD        CLOUDY    84  73  71 SE16G22   29.86F HX  90
OFFUTT AFB     CLOUDY    84  73  67 SE18      29.86F HX  90
PLATTSMOUTH    CLOUDY    83  70  64 SE16G23   29.88F
WAHOO          FAIR      83  73  69 S17G25    29.85F
$$



USA.gov is the U.S. government's official web portal to all federal, state and local government web resources and services.